Temp
52 51 50 49 47 48 48 48 50 52 53 53 52 52 52 53 53 53 54 56 63 65 65 65 64 62 61
49 47 47 47 46 44 45 47 47 50 52 52 51 51 51 51 51 51 52 53 56 60 62 62 61 61 61
46 46 44 43 41 42 42 42 45 46 48 50 50 49 49 49 50 50 50 51 52 53 55 57 59 60 61
48 44 44 43 42 39 38 39 39 44 44 47 47 47 47 48 48 48 49 50 51 51 52 52 54 56 58
45 41 39 38 38 39 37 37 37 38 39 41 44 43 42 47 47 47 48 49 50 50 51 51 52 53 53
42 39 39 39 39 36 35 34 34 38 38 39 41 39 40 41 45 46 47 48 49 49 50 50 50 52 52
41 40 39 40 38 35 35 35 36 37 38 38 38 36 37 42 44 44 45 46 47 48 48 49 50 50 50
41 41 40 40 40 38 37 35 36 37 38 34 35 35 36 38 42 44 45 45 46 47 47 48 48 48 49
43 43 42 43 42 38 34 34 33 34 36 34 32 32 34 35 38 44 45 45 46 46 47 47 47 47 46
39 40 42 42 43 40 38 35 35 33 35 31 30 30 27 33 35 37 38 44 45 45 45 45 45 41 39
38 38 38 38 37 37 37 35 33 32 36 33 29 29 31 28 31 33 35 37 37 38 44 44 44 42 37
35 35 34 33 33 33 33 34 33 33 35 32 31 30 29 28 28 31 32 34 34 34 34 40 43 43 43
32 32 33 32 31 30 31 32 32 32 31 27 31 28 30 29 30 29 28 31 32 32 32 31 32 34 32
32 32 32 30 30 31 29 30 30 29 31 29 29 29 26 28 30 29 29 28 30 30 31 31 33 34 33
32 31 31 31 30 30 29 30 28 29 29 29 31 31 30 28 26 29 29 28 29 29 30 29 30 32 33
32 31 30 30 29 28 29 29 29 30 29 29 28 27 27 30 34 28 29 29 29 30 29 27 28 32 34
31 31 30 30 31 29 29 29 29 29 30 31 29 27 23 23 28 36 29 30 30 29 29 29 27 30 33
MSLP
1021.25 1021.64 1021.76 1022.27 1022.53 1022.84 1022.72 1022.55 1022.50 1022.37 1022.40 1022.36 1022.34 1022.14 1021.82 1021.47 1020.92 1020.13 1018.95 1017.41 1015.92 1015.96 1016.33 1017.04 1017.86 1018.22 1018.56
1021.26 1021.70 1022.14 1022.31 1022.72 1022.92 1022.92 1022.74 1022.67 1022.63 1022.46 1022.40 1022.50 1022.35 1022.09 1021.94 1021.36 1020.67 1019.81 1018.69 1017.18 1016.88 1017.13 1017.59 1018.53 1019.65 1020.13
1021.60 1021.96 1022.39 1022.82 1022.98 1023.23 1023.29 1023.11 1023.01 1023.11 1022.91 1022.72 1022.64 1022.61 1022.42 1022.34 1022.03 1021.38 1020.78 1020.17 1019.17 1018.79 1018.96 1019.17 1019.62 1020.16 1020.78
1021.83 1022.00 1022.16 1022.72 1022.82 1023.23 1023.45 1023.35 1023.32 1023.24 1023.28 1023.08 1022.99 1022.95 1022.89 1022.65 1022.44 1022.17 1021.66 1021.28 1020.96 1020.72 1020.72 1020.57 1020.85 1021.08 1021.47
1021.91 1022.07 1022.30 1022.69 1022.61 1023.03 1023.29 1023.39 1023.44 1023.39 1023.33 1023.23 1022.92 1022.92 1023.12 1022.98 1022.92 1022.68 1022.43 1022.21 1022.09 1021.79 1021.78 1021.40 1021.79 1022.18 1022.47
1021.63 1021.52 1021.71 1022.54 1022.55 1022.88 1023.19 1023.50 1023.57 1023.14 1023.26 1023.12 1023.06 1023.18 1023.30 1023.30 1023.31 1023.15 1022.97 1022.84 1022.74 1022.60 1022.50 1022.40 1022.61 1022.93 1023.23
1021.82 1021.55 1022.13 1021.91 1022.26 1022.61 1022.87 1023.10 1023.07 1023.11 1023.19 1023.03 1023.23 1023.45 1023.68 1023.57 1023.51 1023.47 1023.28 1023.11 1022.97 1022.96 1023.01 1023.10 1023.34 1023.62 1023.93
1021.55 1021.71 1021.93 1021.77 1021.94 1022.01 1022.38 1022.94 1023.12 1023.09 1023.07 1023.19 1023.42 1023.62 1023.76 1023.76 1023.74 1023.53 1023.45 1023.35 1023.28 1023.31 1023.42 1023.65 1023.88 1024.14 1024.30
1021.63 1021.63 1021.63 1021.54 1021.68 1021.99 1022.43 1022.80 1023.07 1023.02 1023.14 1023.21 1023.59 1023.82 1023.92 1023.97 1023.92 1023.72 1023.61 1023.58 1023.59 1023.73 1023.81 1024.03 1024.31 1024.45 1024.67
1021.95 1021.73 1021.48 1021.41 1021.47 1021.67 1021.88 1022.44 1022.52 1022.82 1022.69 1023.31 1023.56 1023.83 1024.18 1024.14 1024.09 1024.04 1023.79 1023.76 1023.94 1024.09 1024.18 1024.47 1024.65 1024.74 1025.07
1021.61 1021.57 1021.54 1021.66 1021.73 1021.82 1021.86 1022.27 1022.46 1022.65 1022.44 1023.09 1023.66 1023.86 1024.07 1024.29 1024.30 1024.34 1024.18 1024.25 1024.30 1024.34 1024.49 1024.66 1024.82 1024.92 1025.18
1021.58 1021.66 1021.77 1022.01 1022.27 1022.37 1022.52 1022.61 1022.59 1022.80 1022.66 1023.15 1023.60 1023.80 1023.91 1024.18 1024.34 1024.44 1024.54 1024.41 1024.48 1024.72 1024.87 1024.82 1024.82 1025.02 1025.19
1021.56 1021.78 1022.02 1022.42 1022.68 1022.91 1023.00 1023.18 1023.09 1022.99 1023.13 1023.28 1023.51 1023.76 1023.82 1023.78 1024.10 1024.41 1024.54 1024.51 1024.62 1024.82 1025.01 1025.14 1025.20 1025.20 1025.40
1021.46 1021.65 1022.12 1022.50 1022.62 1022.80 1022.98 1023.13 1023.07 1023.29 1023.38 1023.39 1023.59 1023.68 1023.83 1023.84 1023.95 1024.16 1024.10 1024.34 1024.47 1024.66 1024.78 1024.90 1024.95 1025.00 1025.11
1021.28 1021.69 1022.01 1022.20 1022.43 1022.71 1022.84 1022.93 1022.96 1022.96 1023.24 1023.54 1023.59 1023.68 1023.78 1023.94 1024.01 1023.86 1023.90 1024.06 1024.19 1024.42 1024.66 1024.72 1024.71 1024.71 1024.71
1021.20 1021.48 1021.88 1022.13 1022.28 1022.43 1022.59 1022.66 1022.65 1022.69 1022.84 1023.09 1023.47 1023.71 1023.71 1023.26 1023.16 1023.29 1023.39 1023.56 1023.83 1024.14 1024.34 1024.49 1024.34 1024.13 1024.16
1020.96 1021.26 1021.51 1021.73 1021.90 1022.12 1022.26 1022.39 1022.34 1022.28 1022.32 1022.60 1023.03 1023.31 1023.51 1023.18 1022.58 1022.58 1022.87 1023.04 1023.40 1023.72 1023.85 1023.92 1023.76 1023.54 1023.56
Wind_Speed
1 3 2 3 3 1 2 3 2 4 2 2 5 8 12 15 17 21 25 25 5 9 12 16 18 23 25
2 1 1 2 3 2 1 2 3 7 2 1 5 9 12 14 14 18 22 25 22 11 16 21 25 22 21
1 1 1 1 2 2 0 1 2 4 6 6 7 8 10 11 14 16 18 21 23 23 19 18 17 20 18
4 2 2 2 2 2 2 1 1 1 3 3 4 6 8 8 12 14 14 16 17 19 18 18 13 13 14
4 2 2 1 3 2 2 2 2 2 2 2 2 2 3 5 7 10 10 11 12 13 14 15 15 15 15
2 3 3 3 3 3 2 2 3 3 3 3 1 1 2 4 6 6 6 7 8 10 11 11 11 11 13
3 1 2 4 4 4 4 3 2 1 2 2 2 1 1 2 5 4 4 4 6 7 8 8 10 11 11
3 2 3 2 4 4 5 4 2 1 2 1 2 1 1 1 3 1 1 3 4 5 5 6 8 8 9
2 4 5 5 5 4 2 3 2 3 3 2 2 2 0 2 1 3 4 3 5 6 6 8 6 7 6
3 1 3 3 2 3 4 3 1 1 4 3 2 3 1 1 1 2 1 6 4 7 5 6 6 1 4
2 2 1 3 2 2 3 2 1 0 4 3 2 2 1 2 1 1 0 1 2 2 3 6 5 1 0
1 2 1 2 2 3 4 4 3 3 2 4 2 2 2 2 2 1 0 0 2 1 1 3 5 6 4
2 1 1 3 3 2 3 3 4 4 3 3 2 2 2 1 2 3 3 3 2 2 2 1 2 2 1
2 2 3 2 2 2 2 1 1 2 2 3 2 1 1 1 1 2 2 3 3 2 2 2 3 4 4
2 2 2 2 2 2 1 2 2 2 2 2 2 1 1 1 2 3 3 2 3 3 3 3 3 4 4
2 2 2 3 2 2 2 2 2 2 2 2 3 1 1 5 13 3 3 3 3 5 2 3 3 5 6
3 3 2 2 4 3 4 4 4 3 2 3 4 2 2 3 1 16 3 4 3 5 4 5 2 3 4
Wind_Direction
107 50 78 144 107 54 17 33 43 34 17 47 39 20 17 7 3 0 358 359 305 185 170 161 157 131 125
109 105 105 85 110 111 42 47 34 32 16 111 62 35 31 16 13 14 13 14 37 92 121 120 120 126 126
246 112 101 143 101 68 26 58 45 16 29 39 63 44 43 30 23 25 25 26 35 52 70 87 107 118 123
276 178 144 136 125 171 215 246 210 3 29 25 65 48 39 33 34 27 36 42 43 57 62 68 79 91 101
254 180 160 186 194 173 184 169 247 223 238 239 237 65 24 34 31 35 40 47 55 63 71 77 78 84 86
237 211 194 210 167 178 139 162 244 189 201 211 202 105 38 37 22 31 44 56 63 65 71 78 80 88 91
266 236 256 208 161 172 179 181 199 151 224 188 141 136 65 54 24 9 28 48 71 74 77 90 98 106 100
288 276 265 271 189 180 165 131 81 52 322 174 110 204 109 129 341 233 121 102 105 96 109 115 116 114 118
296 250 244 229 189 115 133 145 175 194 203 127 165 112 131 189 100 323 167 145 125 118 119 130 130 131 127
232 222 135 111 150 254 160 189 140 113 173 142 121 130 161 339 124 298 123 111 149 140 131 147 144 145 123
215 161 138 105 108 27 24 120 125 222 170 109 165 118 148 138 168 261 231 159 102 108 172 181 179 255 138
230 198 159 111 87 51 38 37 92 168 165 113 139 157 154 142 168 129 259 23 77 122 99 199 212 210 235
207 164 119 88 106 107 71 88 86 64 63 90 134 149 174 153 145 176 151 204 161 175 166 206 186 202 208
192 141 116 151 184 153 162 182 154 136 91 85 125 139 146 248 154 171 192 180 169 192 184 188 220 218 229
140 150 176 159 176 141 199 166 231 161 148 152 163 130 327 208 211 219 188 189 168 168 179 216 220 222 223
164 180 179 175 177 159 187 211 205 196 169 147 146 167 244 238 212 207 198 185 166 176 186 196 236 213 218
171 184 178 181 203 189 194 210 222 216 188 160 173 175 184 239 235 211 198 177 167 192 195 204 211 216 212